RH
42 26 18 16 15 16 23 39 49 55 56 56 56 57 55 55 48 36 34 36 41 46 51 60 64 66 74 77 80 74 68 74 74 76 78 72 69 74 73 76 75 76 80
33 13 12 12 13 13 19 38 48 54 56 57 56 58 57 55 53 40 38 40 42 46 52 62 68 72 71 72 69 64 58 62 71 72 73 69 70 72 71 75 71 76 81
15 13 14 12 12 16 23 32 43 52 56 55 54 55 60 56 57 44 42 44 45 48 45 55 64 69 70 68 65 62 65 71 75 74 70 66 72 75 78 74 71 77 81
13 14 12 10 12 21 30 38 46 51 48 46 47 56 61 58 60 50 44 48 51 69 59 49 54 56 61 65 66 63 65 70 69 71 73 72 72 80 79 74 77 79 83
15 13 11 9 11 22 32 40 42 41 42 47 52 59 64 61 62 58 48 49 57 62 57 50 49 47 50 59 66 64 64 68 78 78 72 72 72 78 79 81 85 83 84
15 13 12 9 11 22 35 39 39 40 44 52 58 63 65 63 64 63 55 52 56 63 58 54 50 57 59 61 68 68 64 76 79 92 81 71 75 79 81 82 86 88 88
15 13 13 11 10 19 30 38 41 41 43 49 58 64 67 68 67 67 61 55 63 70 64 66 60 60 54 60 68 72 68 78 78 87 89 75 67 74 78 78 85 85 83
15 14 14 13 11 14 20 32 42 44 44 45 51 60 67 70 69 69 67 63 64 68 73 69 64 63 64 64 68 76 71 78 86 84 90 85 76 66 71 79 83 81 80
18 14 14 14 12 12 15 20 30 41 45 46 47 51 58 68 70 66 70 69 69 73 75 71 69 66 64 62 66 77 70 72 83 84 71 78 82 70 71 80 86 80 76
24 18 14 14 13 12 13 16 19 27 36 43 46 48 51 58 63 68 70 73 72 78 79 75 75 67 64 55 65 76 71 73 87 88 87 89 83 74 79 85 84 80 82
38 26 15 14 14 13 13 15 17 22 30 37 44 48 51 54 57 65 70 74 74 79 78 77 77 70 69 66 67 60 68 75 86 74 72 84 84 76 84 91 82 77 79
38 29 22 15 14 15 15 16 18 20 24 33 39 46 49 53 56 60 65 71 77 80 80 79 78 74 72 69 60 62 57 72 89 79 81 85 82 81 84 94 91 81 84
40 33 20 18 15 15 16 16 18 19 22 30 36 43 52 55 57 61 66 74 77 81 82 82 85 80 75 69 66 68 62 61 69 92 87 82 86 77 82 79 79 86 77
46 43 37 24 21 18 16 16 18 19 19 23 29 36 45 55 60 62 64 75 82 83 84 84 87 88 84 73 72 74 72 66 62 78 72 69 85 84 72 79 90 85 79
45 42 36 24 24 25 30 23 24 29 23 29 29 29 31 47 61 72 73 79 82 87 86 88 87 89 90 82 71 76 78 75 70 81 77 75 80 91 78 79 95 94 96
42 41 39 34 23 22 26 31 33 40 50 51 50 35 38 44 63 70 76 80 81 88 90 93 86 85 87 83 75 76 77 78 79 78 81 79 94 98 80 87 92 98 98
20 40 47 43 40 39 37 43 48 42 66 71 62 57 47 56 64 72 80 84 81 84 87 94 95 92 94 89 74 76 77 75 81 82 84 75 82 93 84 83 88 96 96
15 18 36 48 47 45 46 51 57 52 68 73 73 64 54 54 68 76 80 81 83 86 88 89 97 96 97 88 81 77 77 78 83 88 87 90 84 87 90 78 84 96 91
14 15 22 40 46 48 48 53 56 61 72 80 81 80 78 65 74 75 72 83 89 88 90 90 94 97 94 92 84 83 78 80 84 94 95 95 87 86 86 75 82 89 91
13 15 18 28 39 44 51 54 55 57 82 83 76 78 84 82 74 88 90 90 92 88 88 87 94 100 100 92 88 84 83 88 92 92 94 91 89 83 80 75 80 89 90
14 14 15 27 44 50 59 70 70 48 52 87 85 77 72 88 89 99 100 100 100 93 82 80 93 100 100 98 97 99 98 94 95 94 99 99 86 78 76 74 80 83 93
18 20 26 43 53 55 58 62 60 47 45 64 83 90 83 81 91 81 100 100 99 92 100 94 84 95 100 99 100 100 100 100 99 100 100 99 85 79 76 80 80 87 94
21 22 24 33 41 43 38 44 61 69 74 75 99 98 95 90 92 93 81 100 100 98 97 98 100 91 92 96 100 99 99 98 97 98 100 97 84 74 78 80 80 83 83
24 24 27 32 35 42 55 60 43 46 47 58 74 96 98 92 90 90 95 93 100 95 92 99 99 99 100 99 100 100 93 86 98 100 100 100 85 80 79 72 75 78 84
33 36 38 38 38 39 43 52 59 47 50 65 65 89 99 92 89 93 98 99 99 92 95 100 98 98 99 100 100 99 99 98 85 88 99 99 96 91 82 77 77 77 80
44 46 49 49 46 48 52 59 60 67 59 63 74 77 87 84 87 92 98 98 97 99 90 96 95 100 90 100 100 100 89 97 89 86 93 96 94 92 83 76 76 77 78
Wind_Speed
14 13 12 11 11 10 9 11 13 15 16 14 12 12 11 10 9 11 11 11 10 10 11 11 10 9 7 6 6 5 6 6 6 5 8 12 15 15 15 15 16 17 17
13 15 16 14 10 9 9 10 12 14 15 15 13 11 11 11 9 10 11 12 11 11 11 10 9 9 7 6 4 3 3 4 5 7 11 14 16 16 15 14 15 17 18
16 19 17 11 8 8 9 10 12 14 15 14 14 12 12 12 9 9 10 10 11 12 11 11 9 9 7 6 5 7 8 9 9 10 13 15 15 14 14 16 16 17 18
21 18 14 9 8 9 10 12 13 14 14 14 13 13 12 12 9 8 8 9 8 11 10 9 9 8 7 7 7 8 9 10 9 11 11 13 15 13 13 15 17 17 18
21 18 13 9 9 10 12 14 14 14 13 13 13 13 12 12 10 8 8 9 9 9 8 7 9 7 7 7 8 9 9 9 11 10 7 7 14 14 14 16 17 17 18
21 18 14 11 10 12 14 15 15 14 13 13 13 13 13 13 11 8 8 9 9 8 8 8 8 6 7 6 7 9 9 12 11 8 7 6 9 13 15 16 16 18 17
22 19 16 14 12 13 14 15 14 14 13 13 13 12 12 13 11 9 9 9 8 8 9 9 7 2 3 5 6 9 10 11 10 6 12 8 9 14 13 15 15 15 13
21 20 18 16 14 14 14 14 14 13 13 13 12 12 11 11 11 10 10 10 10 10 10 11 10 3 4 6 7 9 8 11 9 7 10 8 10 12 14 14 14 13 11
20 21 20 18 16 15 14 14 14 13 13 13 13 12 12 12 12 10 11 10 11 11 11 10 10 4 4 8 9 10 9 10 11 9 12 6 11 13 15 14 14 11 10
22 22 21 20 19 18 17 16 15 14 14 13 13 13 13 14 14 13 12 12 13 13 13 13 12 8 8 10 10 11 12 9 9 5 10 11 12 14 15 15 13 12 11
23 23 23 22 20 20 19 17 17 16 15 15 15 14 15 15 15 15 15 15 16 16 15 15 15 11 10 11 13 11 13 12 11 8 6 11 13 12 13 14 13 12 11
25 25 24 24 23 21 21 19 18 17 17 17 17 17 16 16 16 16 16 17 18 18 17 17 17 13 12 11 16 14 18 17 14 13 13 14 14 13 13 15 14 13 12
23 24 26 25 25 24 23 21 21 19 19 19 19 18 18 17 18 18 17 18 20 20 20 21 21 18 15 14 16 16 21 21 18 14 15 15 15 13 12 12 14 14 13
25 23 23 25 25 25 24 23 21 21 21 20 20 20 20 20 20 20 19 19 20 20 22 23 23 20 19 18 18 16 21 23 24 13 7 18 17 17 12 13 14 16 15
32 28 25 25 26 25 24 22 21 20 20 18 20 20 19 21 20 21 22 22 21 22 23 24 24 23 23 23 21 18 22 24 26 24 8 12 24 22 17 15 15 16 17
37 35 31 28 26 25 24 23 22 21 19 18 17 17 17 19 20 21 22 23 23 22 21 25 24 23 24 21 22 19 22 24 27 28 19 18 20 22 17 16 17 19 19
20 42 39 35 31 28 25 24 24 24 22 22 23 20 19 20 21 21 23 24 23 21 19 21 23 21 22 22 17 18 22 23 28 31 26 18 22 22 17 16 16 19 19
27 27 31 40 37 32 28 24 25 28 30 27 26 24 23 23 23 23 24 24 21 22 22 23 25 25 24 23 20 21 20 25 29 28 26 20 25 22 20 16 18 20 21
30 31 26 35 40 37 32 27 23 30 29 30 29 26 25 27 27 27 26 24 23 24 25 25 26 26 25 25 22 23 19 22 28 24 24 25 24 23 21 18 19 19 21
36 31 36 35 38 38 36 30 24 24 32 30 31 30 27 26 29 31 31 29 27 25 25 26 26 26 27 24 24 23 22 22 23 21 28 27 22 22 21 21 22 22 21
28 36 35 34 39 40 37 32 27 24 28 34 36 33 33 30 28 30 32 29 27 27 27 27 27 27 28 25 23 21 22 19 22 28 31 30 24 23 22 21 24 24 23
24 24 19 14 29 32 29 27 26 21 23 30 31 34 35 35 32 28 32 35 32 30 28 26 27 29 28 26 24 22 17 24 27 34 37 33 26 24 24 26 25 27 25
24 23 20 16 12 13 15 19 23 23 24 30 31 36 38 37 35 31 33 36 35 33 33 28 28 28 30 28 29 20 9 12 26 31 34 33 27 25 24 24 24 26 26
23 22 19 16 16 14 8 24 26 29 32 35 37 38 37 35 31 30 31 32 35 36 35 29 27 28 27 28 28 30 26 15 21 19 29 35 30 30 27 25 24 24 24
9 10 9 12 13 13 15 12 18 31 33 36 36 40 39 34 33 34 33 32 32 34 35 31 29 28 28 29 29 30 31 32 28 31 26 33 36 31 25 28 26 24 23
19 16 12 9 5 5 7 12 20 19 32 38 38 39 35 31 40 38 36 36 34 33 31 31 28 30 29 29 29 29 30 37 38 43 35 39 38 33 30 28 28 26 25
Wind_Direction
148 149 153 151 148 153 164 161 158 156 158 160 158 154 148 141 130 132 136 136 137 136 139 145 151 142 145 140 137 146 137 134 122 119 126 136 130 128 125 123 125 122 125
145 145 139 132 139 154 168 163 159 159 161 164 161 161 157 153 144 144 142 141 139 137 139 141 147 145 153 145 149 148 151 133 127 142 146 142 139 134 127 127 129 126 130
144 138 131 127 139 158 160 161 161 161 162 164 164 167 165 163 154 152 150 146 145 135 138 140 142 146 143 140 137 130 121 124 138 149 150 147 136 131 122 137 133 134 135
143 133 123 128 142 143 145 152 154 156 158 163 164 168 169 169 160 160 157 155 144 134 136 130 135 138 141 144 139 131 132 139 148 139 142 145 137 133 131 139 137 141 142
142 128 118 124 137 141 145 148 149 151 156 161 165 168 170 172 170 169 167 168 158 148 146 131 119 128 133 142 140 138 136 137 131 142 131 159 149 141 142 140 141 144 144
142 130 124 122 137 144 146 149 150 151 153 155 162 168 171 178 180 181 181 178 174 162 161 132 135 151 149 151 143 144 144 143 146 153 148 154 173 150 152 148 149 148 148
147 142 138 129 137 147 153 155 157 156 155 156 163 167 175 183 185 191 192 193 176 172 168 172 162 129 169 164 158 150 158 163 165 190 167 179 183 169 164 160 161 161 161
159 154 152 144 141 150 158 163 165 163 165 166 170 173 182 187 193 198 201 197 188 189 180 186 184 151 210 194 171 161 165 180 199 205 183 184 188 184 178 172 170 163 161
170 167 165 158 155 157 164 168 171 174 176 180 181 183 185 191 199 203 210 205 201 198 194 205 206 234 230 184 178 167 184 191 208 236 177 215 200 186 178 176 171 172 171
184 180 177 173 171 171 176 179 180 184 188 192 194 195 191 197 200 204 207 208 206 204 205 212 218 238 208 192 189 181 192 194 203 211 185 187 195 187 174 178 183 183 179
197 192 191 187 186 186 189 191 193 196 199 202 206 207 202 204 206 204 205 209 211 209 214 222 222 233 215 215 221 200 197 192 204 193 191 210 189 185 185 187 187 187 189
205 205 199 198 199 198 199 201 205 206 209 210 211 214 213 212 214 214 214 214 215 218 222 226 227 233 232 231 213 225 211 206 198 201 186 188 197 203 203 190 188 197 197
210 210 209 205 206 208 210 209 211 214 218 219 218 217 219 219 219 218 217 220 222 223 226 228 229 233 241 233 223 226 217 218 213 204 220 207 212 225 221 203 206 206 209
218 224 224 216 214 212 218 215 217 219 223 226 226 225 220 222 223 225 224 218 220 225 232 234 236 242 244 239 225 230 222 223 220 205 220 222 213 230 231 218 206 212 211
214 222 226 222 221 224 218 225 222 223 222 228 228 226 227 220 220 223 227 229 229 230 236 236 238 243 245 246 234 235 224 222 223 223 236 278 225 225 230 231 213 211 205
217 221 223 220 221 222 225 228 227 236 225 232 232 227 218 218 220 222 226 232 235 236 237 240 239 241 244 242 236 228 224 226 224 224 237 283 230 202 226 220 208 204 201
235 223 218 219 222 222 222 222 221 231 235 235 243 243 230 217 222 224 229 232 237 231 229 229 232 236 238 245 233 230 230 227 224 228 241 264 219 214 220 218 213 198 196
234 238 222 217 221 222 226 221 217 224 228 235 241 246 240 227 222 225 225 228 228 226 227 227 228 232 235 236 242 232 241 235 227 233 245 214 207 212 212 218 212 198 194
228 231 229 215 219 221 225 228 222 219 224 233 240 241 239 234 225 228 232 230 231 229 230 229 228 231 232 236 242 234 249 234 234 235 228 203 204 214 209 210 199 199 195
231 227 228 219 217 222 221 223 228 224 217 227 238 243 242 234 230 223 229 234 230 226 227 233 231 230 232 235 240 241 256 241 234 229 220 203 203 211 208 207 193 198 202
222 228 229 220 209 212 214 212 217 232 236 224 231 246 248 246 239 219 223 223 225 227 230 228 226 225 230 228 234 245 245 238 239 217 210 198 201 201 206 212 198 202 208
205 183 165 164 206 211 216 223 229 243 252 244 236 235 243 246 248 242 223 219 221 230 226 226 225 222 224 224 225 221 220 218 240 205 201 199 202 201 212 211 205 207 211
184 177 170 155 159 209 229 233 237 232 237 239 235 231 234 237 245 248 231 224 220 227 230 225 221 226 224 229 225 212 187 207 211 215 194 199 204 209 205 207 211 217 219
179 190 199 200 196 179 187 232 244 244 246 243 240 238 233 241 242 241 238 229 223 228 232 230 230 226 232 227 222 222 224 206 187 183 200 204 208 204 207 206 211 221 223
151 166 195 218 229 243 243 254 263 247 250 247 244 241 236 241 246 244 235 234 227 227 231 231 230 230 232 232 231 226 227 228 219 186 180 198 205 204 213 215 215 218 220
131 132 138 138 173 230 268 277 278 273 252 246 243 244 247 248 236 236 232 233 230 233 232 232 235 229 235 237 237 236 226 215 207 203 196 191 196 202 206 213 220 219 218